星链-3770 (STARLINK-3770 )

导读

STARLINK-3770是美国太空探索技术公司(SpaceX)于2022年5月13日发射的星链(Starlink)卫星,属于星链低轨互联网星座的组成部分。星链计划旨在构建全球覆盖的卫星互联网网络,为传统网络覆盖不足的区域提供高速互联网接入服务。作为星链规模化部署中的一员,STARLINK-3770与其他数千颗卫星共同协作,支撑全球卫星互联网服务的运行。

基本信息
目录编号:
52554
目录名称:
STARLINK-3770
国际标识:
2022-051X
轨道中心:
EARTH
卫星名称:
星链-3770
卫星全名:
星链-3770 (STARLINK-3770 )
卫星状态:
在轨 (已飞行1575 天)
发射日期:
2022-05-13 UTC
国别 :
美国 (US)
星等 :
--
轨道信息
数据来源 国际轨道数据
星历时间: 2026-09-04T12:24:44+0800
10小时前
查看轨道信息
半长轴: 6848.883km
偏心率: 0.0001169
轨道倾角: 53.162°
近地点辐角 78.498°
升交点赤经 49.734°
平近点角 281.615°
近地点: 469.945km
远地点: 471.547km
周期: 94.013分钟
每日圈数: 15.316981
详细信息
固有亮度:
5
最大亮度:
2.5
卫星平台:
Starlink v1.5
覆盖范围:
全球
运营商:
太空探索技术公司
运营商所在国:
美国
制造商(研发单位):
太空探索技术公司
制造商所在国:
美国
使用方式:
暂无
卫星简介
星链(Starlink)计划是由太空探索技术公司(SpaceX)提出的一个巨型低轨卫星互联网星座项目,计划在2019年至2024年间在太空搭建由约1.2万颗卫星组成的“星链”网络,其中1584颗将部署在地球上空550千米处的近地轨道,并从2020年开始工作。该卫星仍在工作。
2D轨道图
3D轨道图
轨道高度分析图
轨道倾角分析图
轨道综合分析图
查看轨道综合分析图
交会数据列表
事件ID 空间交会对象 最接近时刻(TCA) 交会距离 交会风险概率(CRP) 交会风险指数(CRI) 操作
CDM_260903-045301-102805-255423
M-3H R/B (11028)
2026-09-03T
04:53:51+0000
1.615 km
极远距离
4.379013E-6 低风险 0.48
CDM_260906-043305-255406-528721
2026-09-06T
04:33:29+0000
2.672 km
极远距离
1.394238E-6 低风险 0.38
CDM_260904-154505-255406-756921
2026-09-04T
15:45:53+0000
2.753 km
极远距离
1.32249E-6 低风险 0.37
CDM_260907-004705-255406-860621
2026-09-07T
00:47:21+0000
2.832 km
极远距离
1.031822E-6 低风险 0.35
CDM_260906-211405-255405-350821
2026-09-06T
21:14:05+0000
2.781 km
极远距离
9.40475E-7 极低风险 0.34